NOAA 16 DEB

Satellite information

Favourite Embed

Satellite Type and Status

DEBRISIN ORBIT

Key statistics

Satellite NOAA 16 DEB at a glance.

Uptime

9056

Days in orbit

Revolutions

≈ 14.5

Per day

Orbit

SSO

Sun Synchronous Orbit

Inclination

99.0

Latest

Satellite identification and parameters

Extended collection of information and parameters for NOAA 16 DEB.

Object identification

Identified? True

Debris? True

Object name: NOAA 16 DEB

International designator: 2000-055GT

Object number (NORAD): 41291

Object ID (CCSDS): 41291

Country: UNITED STATES OF AMERICA (US)

Current information (Y/N): Y

RCS size: SMALL

Orbital parameters

Period: 99.22 minutes

Inclination: 99.0061 deg

SMA: 7099.459 km

Apoapsis: 749.587 km

Periapsis: 693.061 km

RAAN: 48.4402 deg

Eccentricy: 0.003981

Argument of periapsis: 17.7415 deg

Mean anomaly: 342.5157 deg

Mean motion: 14.51325634 rev/day

Mean motion (dot): 0.00005707 rev/day2

B* drag term: 0.0014305 1/REarth

Two-line elements (TLE)

Creation date: July 5, 2025, 4:36 a.m.

Reference frame: TEME

Reference center: EARTH

Epoch: July 4, 2025, 9:09 p.m. UTC

TLE line 0: 0 NOAA 16 DEB

TLE line 1: 1 41291U 00055GT 25185.88179967 .00005707 00000-0 14305-2 0 9997

TLE line 2: 2 41291 99.0061 48.4402 0039810 17.7415 342.5157 14.51325634500211

Live tracking on map

Real-time ground track for satellite NOAA 16 DEB.

In-orbit conjunctions

A list of the most updated potential collisions computed for object NOAA 16 DEB.

Target Orbit TCA Probability of collision Miss distance Type
CZ-6A DEB LEO 2024-11-11 19:35:14 0.0001519438 934.0 (m) DEBRIS
COSMOS 1048 LEO 2024-11-04 07:29:40 0.0001135966 155.0 (m) PAYLOAD
ORSTED SSO 2024-10-13 23:35:05 0.0001416064 899.0 (m) PAYLOAD

Associated space launch

The NOAA K, L and M POES satellites begin the fifth generation of improved environmental monitoring in support of NOAA missions. The instrument payload has significant improvements and additions/deletions. The instrument changes have effected the spacecraft subsystems and data formats.

NOAA 16 DEB was lifted into orbit during the mission ‘Titan II SLV | NOAA 16’, on board a Titan II SLV space rocket.

The launch took place on Sept. 21, 2000, 10:22 a.m. from Space Launch Complex 4W.

For more information about the launch, click the button.

Launch to space Titan II SLV | NOAA 16
Titan II SLV | NOAA 16

Agency: N/A

Status: Launch Successful

Launch date: Sept. 21, 2000, 10:22 a.m. UTC

Rocket: Titan II SLV

Launch pad: Space Launch Complex 4W

Location: Vandenberg SFB, CA, USA

...

Latest news about this satellite

There are no fresh news available about this satellite. Check back as we update our databases every day.


Newsletter sign-up

Weekly statistics, charts and insights to help you stay on top of the space industry.